Flag for U.S.A. Weather past 2 weeks in Livonia, Michigan, U.S.A.

Now
47 °F

Partly cloudy.


Feels Like: 42 °F
Forecast: 46 / 62 °F
Wind: 12 mph from Northeast

Location: Detroit Metropolitan Wayne County Airport

Current Time: Apr 19, 2015 at 7:51:36 AM

Latest Report: Apr 19, 2015 at 6:53 AM


Visibility: 10 mi

Pressure: 30.06 "Hg

Humidity: 48%

Dew point: 28 °F

Location of LivoniaLocation

Historic Weather in Livonia — Graph

°F

Livonia temperature yesterday

Maximum temperature yesterday: 75 °F (at 12:53 PM)
Minimum temperature yesterday: 49 °F (at 5:53 AM)
Average temperature yesterday: 61 °F

Past Weeks' High & Low Weather Summary

 TemperatureHumidityPressure
High75 °F (Apr 18, 12:53 PM)100% (Apr 9, 4:01 AM)30.40 "Hg (Apr 9, 4:01 AM)
Low25 °F (Apr 4, 6:53 AM)13% (Apr 18, 7:53 PM)29.46 "Hg (Apr 10, 4:53 AM)
Average52 °F60%30.09 "Hg
* Reported Apr 4 6:53 AM — Apr 19 6:53 AM, Livonia, Weather by CustomWeather, © 2015

Note: Actual official high and low records may vary slightly from our data, if they occured in-between our weather recording intervals... More about our weather records

Advertising

Livonia weather history for previous 24 hours

 ConditionsComfort  
Time TempWeatherWind HumidityBarometerVisibility
6:53 AM
Sun, Apr 19
47 °FPartly cloudy.12 mph48%30.06 "Hg10 mi
5:53 AM48 °FPassing clouds.9 mph50%30.07 "Hg10 mi
4:53 AM49 °FPassing clouds.10 mph52%30.08 "Hg10 mi
3:53 AM47 °FPassing clouds.7 mph56%30.09 "Hg10 mi
2:53 AM48 °FPassing clouds.8 mph52%30.11 "Hg10 mi
1:53 AM49 °FPassing clouds.9 mph48%30.12 "Hg10 mi
12:53 AM50 °FPassing clouds.9 mph46%30.12 "Hg10 mi
11:53 PM
Sat, Apr 18
50 °FPassing clouds.8 mph46%30.14 "Hg10 mi
10:53 PM52 °FPassing clouds.8 mph43%30.14 "Hg10 mi
9:53 PM56 °FPassing clouds.14 mph34%30.12 "Hg10 mi
8:53 PM60 °FScattered clouds.7 mph20%30.11 "Hg10 mi
7:53 PM63 °FPartly sunny.13 mph13%30.11 "Hg10 mi
6:53 PM65 °FPartly sunny.16 mph16%30.11 "Hg10 mi
5:53 PM67 °FOvercast.14 mph19%30.10 "Hg10 mi
4:53 PM69 °FOvercast.13 mph21%30.09 "Hg10 mi
3:53 PM71 °FPartly sunny.12 mph25%30.10 "Hg10 mi
2:53 PM71 °FPartly sunny.14 mph28%30.09 "Hg10 mi
1:53 PM72 °FScattered clouds.13 mph33%30.07 "Hg10 mi
12:53 PM75 °FScattered clouds.8 mph26%30.06 "Hg10 mi
11:53 AM74 °FScattered clouds.15 mph31%30.06 "Hg10 mi
10:53 AM73 °FPartly sunny.12 mph36%30.06 "Hg10 mi
9:53 AM69 °FBroken clouds.8 mph42%30.05 "Hg10 mi
8:53 AM60 °FPartly sunny.3 mph56%30.04 "Hg10 mi
7:53 AM55 °FPartly sunny.5 mph67%30.04 "Hg10 mi
Weather by CustomWeather, © 2015

See weather overviewHow to use our weather pages